Location: ?
(35.4554°N, 139.3092°E)
Time: 22:48:26
(UTC+00:00)

OAO 1 - Pass Details

Date: 21 April 2021
Orbit: 774 x 783 km, 35.0° (Epoch: 10 May)

Event Time Altitude Azimuth Distance (km) Brightness Sun altitude
Exits shadow 18:33:53 25° 271° (W) 1,525 5.6 -17.4°
Maximum altitude 18:37:10 86° 185° (S) 785 4.5 -16.8°
Drops below altitude 10° 18:42:42 10° 96° (E) 2,330 7.9 -15.8°
Sets 18:45:11 0° 95° (E) 3,257 8.8 -15.4°
